Location: Arnum
(52.3031°N, 9.7372°E)
Time: 00:45:13
(UTC+00:00)

Daily predictions for brighter satellites

Satellite Brightness Start Highest point End
(mag) Time Altitude Azimuth Time Altitude Azimuth Time Altitude Azimuth
Cosmos 2333 Rocket 4.3 01:57:28 23° NE 01:57:28 23° NE 01:59:48 10° NE
CENTAUR R/B 4.0 02:05:13 35° N 02:05:13 35° N 02:11:43 10° ENE
ACS3 Solar Sail 3.3 01:59:23 10° NNE 02:03:45 32° ENE 02:03:45 32° ENE
USA 234 4.4 02:07:57 10° ESE 02:11:31 36° ESE 02:11:31 36° ESE
Cosmos 2360 Rocket 3.9 02:17:23 30° ENE 02:17:23 30° ENE 02:20:30 10° NE
Cosmos 2322 Rocket 3.9 02:17:43 30° NE 02:17:43 30° NE 02:20:43 10° NE
SL-16 R/B 3.9 02:24:11 28° NE 02:24:11 28° NE 02:26:46 10° NNE
Cosmos 1943 Rocket 4.0 02:24:45 25° NNE 02:25:10 25° NE 02:29:43 10° E
ADEOS Rocket 3.5 02:32:19 10° NNE 02:38:45 64° ESE 02:38:45 64° ESE
CZ-2C R/B 4.3 02:36:43 10° NE 02:40:56 27° E 02:42:20 24° ESE
BREEZE-M DEB (TANK) 4.5 02:53:28 64° SSW 02:53:48 64° SSW 03:15:51 10° SE
Cosmos 2219 Rocket 2.9 02:55:06 50° E 02:55:06 50° E 03:00:17 10° NE
USA 59 Rocket 2.7 03:05:02 11° E 03:05:02 11° E 03:05:11 10° E
Meteor 2-19 Rocket 4.5 03:17:16 68° N 03:17:16 68° N 03:22:36 10° N
CZ-2D R/B 4.1 03:12:59 10° N 03:14:23 17° N 03:14:23 17° N
USA 267 3.3 03:12:36 10° ENE 03:19:08 70° SE 03:20:18 58° SSW
Cosmos 2333 4.2 03:21:23 78° NNE 03:21:23 78° NNE 03:26:47 10° NNE
Cosmos 2150 Rocket 4.1 03:23:19 73° ENE 03:23:19 73° ENE 03:28:12 10° NNE
Cosmos 967 Rocket 4.5 03:24:31 67° NW 03:24:31 67° NW 03:30:50 10° NE
Cosmos 2228 Rocket 3.8 03:26:01 50° E 03:26:07 50° E 03:30:24 10° NNE
Cosmos 1980 Rocket 4.1 03:27:56 18° NNW 03:27:56 18° NNW 03:30:41 10° NNE
Cosmos 1269 Rocket 4.1 03:29:01 66° N 03:29:39 75° ENE 03:34:56 10° SSE
H-2A R/B 3.3 03:25:40 10° N 03:28:05 28° N 03:28:05 28° N
Cosmos 2278 Rocket 2.8 03:29:48 28° NNW 03:32:36 55° NE 03:38:09 10° SE
USA 238 DEB 3.9 03:33:04 50° NW 03:33:28 50° NNW 03:40:20 10° NE
USA 238 3.8 03:33:10 50° NW 03:33:34 51° NNW 03:40:27 10° NE
Cosmos 2173 Rocket 4.1 03:30:24 10° N 03:36:32 72° ENE 03:42:35 10° SSE
Cosmos 2333 Rocket 2.7 03:39:31 44° NNW 03:39:31 44° NNW 03:44:17 10° NNE
ADEOS II 3.8 03:38:02 10° N 03:39:55 20° NNW 03:39:55 20° NNW
Cosmos 1153 Rocket 4.3 03:38:55 10° NNW 03:45:02 67° W 03:51:11 10° S
COSMOS 2455 2.9 03:45:06 56° NW 03:45:23 57° NW 03:51:22 10° NE
Lacrosse 5 rocket 2.6 03:46:58 30° NE 03:46:58 30° NE 03:48:52 10° ENE
Cosmos 1939 Rocket 3.8 03:42:36 10° NNE 03:46:21 46° E 03:48:48 19° SSE
Cosmos 2298 Rocket 3.9 03:46:57 72° W 03:47:13 75° WNW 03:52:35 10° NNE
ACS3 Solar Sail 1.8 03:42:13 10° N 03:47:53 53° WNW 03:47:53 53° WNW
Cosmos 2369 Rocket 4.3 03:45:19 10° NNW 03:49:30 21° NNE 03:53:43 10° E
Resurs 1-4 Rocket 4.1 03:47:05 10° N 03:48:13 14° NNW 03:48:13 14° NNW
BlueWalker 3 3.5 03:53:51 25° SSE 03:53:51 25° SSE 03:55:39 10° SE
CENTAUR R/B 3.9 03:52:18 23° NW 03:56:43 43° NNE 04:05:05 10° E
USA 234 3.6 03:51:47 10° SSE 03:57:57 43° SW 03:58:53 41° WSW
Cosmos 2360 Rocket 2.6 03:59:09 44° NW 03:59:11 44° NW 04:04:37 10° NNE
Cosmos 2123 Rocket 4.5 03:53:06 10° S 03:59:11 60° E 04:05:16 10° NNE
Cosmos 2322 Rocket 2.7 03:59:32 40° NW 03:59:32 40° NW 04:04:49 10° NNE
Helios 1A Rocket 3.5 03:57:54 10° SE 04:01:09 45° ENE 04:02:41 26° NNE
Gbstr 26 Del rocket 4.4 03:59:15 28° SSW 04:01:22 42° SSE 04:06:54 10° ENE
Cosmos 1461 4.4 04:04:45 23° N 04:04:45 23° N 04:07:06 10° NNE
Cosmos 44 Rocket 3.4 04:05:02 55° WSW 04:05:29 57° SW 04:10:31 10° SSE
SL-16 R/B 3.3 04:06:02 27° NW 04:06:02 27° NW 04:10:37 10° NNE
Cosmos 2016 Rocket 4.2 04:01:23 10° N 04:07:48 75° ENE 04:14:10 10° SSE
Cosmos 1943 Rocket 2.0 04:06:17 25° NNW 04:09:37 88° WSW 04:15:08 10° SSE
H-2A R/B 3.1 04:07:36 10° N 04:11:15 69° NW 04:11:15 69° NW
Okean 1-7 2.9 04:13:10 58° WNW 04:13:10 58° WNW 04:17:07 10° N
Meteor 2-14 Rocket 4.3 04:06:52 10° SSW 04:12:57 71° WNW 04:19:04 10° N
ARGOS 3.2 04:08:35 10° N 04:13:52 55° WNW 04:16:17 31° SW
Cosmos 1862 Rocket 4.1 04:15:09 38° NNW 04:15:09 38° NNW 04:18:14 10° N
PAYLOAD A 4.0 04:09:20 10° NNE 04:14:45 70° WNW 04:20:02 10° SSW
Cosmos 1908 Rocket 3.4 04:11:03 10° NNW 04:15:31 81° W 04:19:57 10° S
NOSS 2-1 (C) 3.4 04:14:58 42° S 04:15:38 52° SE 04:18:35 10° NE
Cosmos 1140 Rocket 3.5 04:15:56 38° NW 04:17:34 55° WSW 04:22:32 10° S
CZ-2C R/B 2.5 04:14:24 10° N 04:19:14 53° WNW 04:21:32 30° SW
Timation 2 Rocket 4.0 04:14:49 20° NW 04:19:32 65° WSW 04:25:52 10° SSE
NOSS 2-1 (D) 3.1 04:19:05 49° S 04:19:40 61° SE 04:22:39 10° NE
Cosmos 1300 Rocket 3.8 04:15:56 10° N 04:20:18 68° ENE 04:24:35 10° SSE
ADEOS Rocket 3.8 04:18:20 10° N 04:23:58 34° WNW 04:25:40 30° W
Cosmos 1809 Rocket 4.4 04:18:58 10° SSW 04:24:57 57° WNW 04:30:58 10° N
Cosmos 2061 Rocket 4.3 04:21:37 10° N 04:27:51 71° ENE 04:34:01 10° SSE
NOSS 3-1 (C) 3.0 04:27:25 22° SW 04:30:39 87° SE 04:36:38 10° NE
Iridium 4 Rocket 2.9 04:26:21 10° N 04:30:47 89° W 04:34:58 10° S
Cosmos 2100 Rocket 4.1 04:25:12 10° NNW 04:31:06 49° W 04:36:58 10° SSW
SJ 16-02 2.7 04:27:42 10° N 04:31:44 37° ENE 04:35:44 10° SE
Cosmos 1190 Rocket 4.4 04:32:16 10° NNW 04:37:34 65° ENE 04:42:46 10° SE
Cosmos 2219 Rocket 2.7 04:36:50 29° W 04:38:55 38° NW 04:44:14 10° NNE
IRS-1D 3.4 04:34:20 10° NNE 04:39:21 87° E 04:44:18 10° SSW
SL-24 R/B - RUBIN 2 4.1 04:39:23 28° W 04:41:50 50° NW 04:46:32 10° NE
Cosmos 1707 Rocket 4.5 04:42:43 27° WNW 04:42:43 27° WNW 04:46:07 10° N
NOSS 0 Rocket 4.1 04:38:59 10° SSW 04:45:07 78° ESE 04:51:18 10° NE
Cosmos 1869 4.0 04:43:20 10° N 04:46:44 46° ENE 04:50:06 10° SSE
COSMOS 2428 2.6 04:42:53 10° SW 04:48:34 70° NW 04:54:17 10° NNE
Cosmos 371 Rocket 4.1 04:45:43 10° NNW 04:50:28 52° ENE 04:55:12 10° SE
SL-08 RB Rocket 4.3 04:46:42 10° N 04:50:47 33° WNW 04:53:29 18° WSW
USA 59 Rocket -0.9 04:50:47 33° WSW 04:51:58 60° NW 04:54:53 10° NE
Cosmos 1459 Rocket 4.4 04:46:21 10° NNW 04:52:12 40° W 04:58:01 10° SSW
Cosmos 1954 Rocket 4.2 04:50:29 10° NNW 04:55:43 73° ENE 05:00:53 10° SSE
FengYun 1-2 T 4.2 04:50:22 10° N 04:55:49 60° WNW 05:01:18 10° SSW
Cosmos 2322 3.8 04:50:30 10° SW 04:56:05 57° NW 05:01:42 10° NNE
COSMO-SKYMED 1 2.5 04:55:22 10° S 04:59:25 57° W 05:03:31 10° NNW
Cosmos 407 Rocket 3.7 04:54:47 11° NW 04:59:29 46° WSW 05:04:20 10° S
SKYMED 2 3.9 04:56:40 10° S 05:00:48 43° W 05:04:58 10° NNW
Cosmos 1484 Rocket 3.3 04:58:29 10° NNE 05:02:00 55° E 05:05:29 10° S
USA 267 3.3 04:55:43 10° ENE 05:02:12 68° NNW 05:07:39 15° W
Cosmos 1725 Rocket 4.2 04:56:43 10° NNW 05:02:44 47° W 05:08:43 10° SSW
Cosmos 2228 Rocket 4.2 05:03:28 21° W 05:04:31 22° WNW 05:08:01 10° NNW
Cosmos 1980 3.8 05:02:38 10° SSW 05:08:17 85° ESE 05:14:00 10° NNE
H-2A R/B 3.8 05:07:03 10° NNW 05:08:34 12° NW 05:08:34 12° NW
Cosmos 1802 Rocket 4.5 05:04:42 10° NNW 05:10:32 38° W 05:16:15 10° SSW
Cosmos 1656 Rocket 3.9 05:07:05 10° NNW 05:12:47 79° ENE 05:18:28 10° SE
Cosmos 1980 Rocket 4.3 05:11:24 10° NNW 05:13:12 11° N 05:15:01 10° NNE
Cosmos 2233 Rocket 4.1 05:07:52 10° NNW 05:14:01 55° W 05:20:07 10° SSW
Cosmos 1400 Rocket 4.1 05:10:37 10° N 05:14:09 38° ENE 05:17:38 10° SE
NOSS 3-1 (A) 3.2 05:09:59 10° SW 05:14:48 81° SE 05:20:47 10° NE
Cosmos 2278 Rocket 2.9 05:11:40 11° NW 05:16:27 33° WSW 05:21:25 10° SSW
Lacrosse 4 Rocket 3.8 05:14:32 10° N 05:16:43 14° NNE 05:18:50 10° ENE
Cosmos 2251 Rocket 3.6 05:13:07 10° NNW 05:18:22 58° WSW 05:23:36 10° S
Cosmos 304 Rocket 3.8 05:14:02 10° NNW 05:18:50 87° ENE 05:23:36 10° SSE
Cosmos 1703 Rocket 4.1 05:14:52 10° SW 05:18:50 34° WNW 05:22:53 10° N
Cosmos 1939 Rocket 4.0 05:17:06 10° NNW 05:20:03 21° WNW 05:22:59 10° WSW
NOSS 2-1 (E) 3.0 05:18:53 12° WSW 05:21:49 45° NW 05:24:45 10° NE
Lacrosse 5 rocket 1.8 05:20:39 16° WNW 05:22:59 35° N 05:26:07 10° ENE
Cosmos 2333 Rocket 3.9 05:21:32 12° WNW 05:24:31 17° NNW 05:28:15 10° NNE
Cosmos 2237 Rocket 2.2 05:18:54 10° SSW 05:24:35 82° WNW 05:30:17 10° NNE
IGS 5A 3.8 05:20:58 10° NNE 05:24:59 67° ESE 05:28:58 10° S
BlueWalker 3 4.1 05:28:52 10° SW 05:29:02 10° SW 05:29:11 10° SW
Cosmos 2292 Rocket 4.3 05:25:07 10° SW 05:29:20 42° WNW 05:34:45 10° N
ACS3 Solar Sail 3.4 05:27:04 10° NNW 05:29:46 13° NW 05:32:02 11° WNW
Cosmos 2151 Rocket 4.1 05:26:33 10° N 05:31:03 65° ENE 05:35:29 10° SSE
NOSS 7 (E) 4.1 05:29:14 11° NW 05:32:09 77° SW 05:35:25 10° SE
COSMOS 2455 4.1 05:28:15 12° WNW 05:32:36 24° NNW 05:37:26 10° NE
Helios 1A Rocket 4.1 05:31:55 10° SW 05:34:07 16° W 05:36:18 10° NW
Meteor 1-24 Rocket 4.3 05:29:00 10° SW 05:34:10 34° WNW 05:39:15 10° N
CZ-4 R/B 4.4 05:30:03 10° N 05:34:35 38° WNW 05:39:02 10° SW
Cosmos 2369 Rocket 2.6 05:28:57 10° NNW 05:34:37 66° NE 05:40:17 10° SE
Cosmos 2242 Rocket 3.5 05:30:49 10° S 05:35:11 86° W 05:39:38 10° N
Cosmos 1624 Rocket 4.3 05:35:45 10° SSW 05:40:54 72° ESE 05:46:05 10° NNE
Cosmos 968 Rocket 3.9 05:35:51 10° NNW 05:41:05 68° ENE 05:46:18 10° SE
Cosmos 2360 Rocket 3.9 05:41:15 10° WNW 05:44:43 16° NNW 05:48:11 10° NNE
Cosmos 2322 Rocket 3.9 05:41:48 10° WNW 05:45:07 15° NNW 05:48:27 10° NNE
Meteor 2-5 Rocket 4.5 05:40:10 10° SW 05:45:26 33° WNW 05:50:40 10° N
Cosmos 1420 Rocket 4.0 05:41:25 10° SW 05:46:40 69° WNW 05:51:59 10° NNE
Gbstr 26 Del rocket 3.9 05:42:18 10° WSW 05:47:34 82° S 05:54:07 10° E
Cosmos 1674 Rocket 4.2 05:43:48 10° S 05:48:09 62° E 05:52:33 10° NNE
CENTAUR R/B 3.4 05:40:29 10° NW 05:48:29 82° NE 05:57:49 10° SE
ARIANE 5 R/B 3.4 05:44:34 10° NNE 05:49:32 56° ESE 05:54:32 10° S
SL-16 R/B 4.1 05:49:31 10° NW 05:51:59 13° NNW 05:54:27 10° NNE
Cosmos 1943 Rocket 3.6 05:49:04 10° WNW 05:52:32 17° W 05:56:00 10° SW
